{"data":{"norad_id":65971,"epoch":"2026-05-25T03:07:10.971840Z","epoch_age_seconds":57627,"freshness":"FRESH","line1":"1 65971U 25229A   26145.12998810  .00003662  00000+0  26876-3 0  9992","line2":"2 65971  41.9293  55.2250 0038663 261.7486  97.8954 15.04184365 33507","mean_motion":15.04184365,"eccentricity":0.0038663,"inclination_deg":41.9293,"raan_deg":55.225,"arg_perigee_deg":261.7486,"mean_anomaly_deg":97.8954,"bstar":0.00026876,"rev_number":3350,"period_min":95.732945608699,"perigee_km":527.20873224005,"apogee_km":580.81225595291,"semimajor_km":6932.1474940965,"source":"CELESTRAK","updated_at":"2026-05-25T13:38:05.875599Z"}}